Change the Weather History Date:

Friday, January 18, 2013

  Actual Average Record
Temperature  
Mean Temperature -22 °F -  
Max Temperature -18 °F -7 °F 19 °F (1987)
Min Temperature -25 °F -19 °F -52 °F (1989)
Degree Days  
Heating Degree Days 86    
Moisture  
Dew Point -28 °F    
Average Humidity 73    
Maximum Humidity 76    
Minimum Humidity 69    
Precipitation  
Precipitation 0.00 in - - ()
Sea Level Pressure  
Sea Level Pressure 30.79 in    
Wind  
Wind Speed 20 mph (WSW)    
Max Wind Speed 24 mph    
Max Gust Speed 24 mph    
Visibility 3 miles    
Events Snow    
Averages and records for this station are not official NWS values.
T = Trace of Precipitation, MM = Missing Value Source: NWS Daily Summary

Daily Weather History Graph

Daily Weather History Graph

Search for Another Location

Airport or City:

Trip Planner

Search our weather history database for the weather conditions in past years. The results will help you decide how hot, cold, wet, or windy it might be!

Date:

Astronomy

Jan. 18, 2013 Rise Set
Actual Time 12:24 PM AKST 1:45 PM AKST
Civil Twilight 10:03 AM AKST 4:06 PM AKST
Nautical Twilight 8:33 AM AKST 5:36 PM AKST
Astronomical Twilight 7:18 AM AKST 6:51 PM AKST
Moon 10:05 AM AKST (1/18) 2:36 AM AKST (1/18)
Length of Visible Light 6h 03m
Length of Day
1h 20m
Waxing Crescent, 49% of the Moon is Illuminated
Jan 18
Waxing Crescent
Jan 18
First Quarter
Jan 26
Full
Feb 3
Last Quarter
Feb 9
New

Hourly Weather History & Observations

Time (AKST) Temp. Windchill Dew Point Humidity Pressure Visibility Wind Dir Wind Speed Gust Speed Precip Events Conditions
12:29 AM -25.6 °F -57.9 °F -32.8 °F 69% 30.64 in 1.2 mi SW 24.2 mph - N/A Snow Blowing Snow
12:53 AM -25.1 °F -57.2 °F -32.1 °F 70% 30.65 in 1.0 mi WSW 24.2 mph - N/A Snow Blowing Snow
1:53 AM -25.1 °F -57.2 °F -31.0 °F 74% 30.66 in 1.0 mi WSW 24.2 mph - N/A Snow Blowing Snow
2:53 AM -23.1 °F -53.9 °F -29.0 °F 74% 30.67 in 1.0 mi WSW 23.0 mph - N/A Snow Blowing Snow
3:53 AM -24.0 °F -55.1 °F -29.9 °F 74% 30.68 in 0.8 mi WSW 23.0 mph - N/A Snow Blowing Snow
4:26 AM -23.8 °F -54.9 °F -29.2 °F 76% 30.68 in 1.0 mi WSW 23.0 mph - N/A Snow Blowing Snow
4:53 AM -24.0 °F -54.5 °F -29.9 °F 74% 30.70 in 1.2 mi WSW 21.9 mph - N/A Snow Blowing Snow
5:53 AM -24.0 °F -55.1 °F -31.0 °F 70% 30.71 in 1.0 mi WSW 23.0 mph - N/A Snow Light Snow
6:53 AM -24.0 °F -52.5 °F -31.0 °F 70% 30.72 in 1.0 mi WSW 18.4 mph - N/A Snow Light Snow
7:53 AM -23.1 °F -48.9 °F -29.0 °F 74% 30.73 in 1.8 mi WSW 15.0 mph - N/A Snow Light Snow
8:53 AM -23.1 °F -52.0 °F -29.0 °F 74% 30.75 in 1.8 mi WSW 19.6 mph - N/A Snow Light Snow
9:23 AM -23.8 °F -52.2 °F -29.2 °F 76% 30.74 in 2.0 mi WSW 18.4 mph - N/A Snow Light Snow
9:53 AM -22.0 °F -49.9 °F -27.9 °F 74% 30.76 in 2.0 mi WSW 18.4 mph 24.2 mph N/A Snow Light Snow
10:50 AM -20.2 °F -48.9 °F -27.4 °F 69% 30.76 in 2.0 mi SW 20.7 mph - N/A Snow Light Snow
10:53 AM -20.9 °F -49.8 °F -27.9 °F 70% 30.78 in 2.0 mi SW 20.7 mph - N/A Snow Light Snow
11:23 AM -20.2 °F -47.5 °F -27.4 °F 69% 30.77 in 1.5 mi WSW 18.4 mph - N/A Snow Light Snow
11:53 AM -20.9 °F -48.5 °F -27.0 °F 73% 30.79 in 1.5 mi WSW 18.4 mph - N/A Snow Light Snow
11:57 AM -20.2 °F -46.8 °F -27.4 °F 69% 30.79 in 2.0 mi WSW 17.3 mph - N/A Snow Light Snow
12:53 PM -20.9 °F -45.3 °F -27.0 °F 73% 30.82 in 2.0 mi WSW 13.8 mph - N/A Snow Light Snow
1:23 PM -20.2 °F -45.2 °F -25.6 °F 76% 30.81 in 2.5 mi WSW 15.0 mph - N/A Snow Light Snow
1:40 PM -20.2 °F -48.9 °F -25.6 °F 76% 30.81 in 1.5 mi WSW 20.7 mph - N/A Snow Light Snow
1:53 PM -20.0 °F -48.6 °F -26.0 °F 74% 30.83 in 1.5 mi WSW 20.7 mph - N/A Snow Light Snow
2:17 PM -18.4 °F -45.2 °F -25.6 °F 70% 30.82 in 2.5 mi WSW 18.4 mph - N/A Snow Light Snow
2:19 PM -18.4 °F -44.5 °F -25.6 °F 70% 30.82 in 3.0 mi WSW 17.3 mph - N/A Snow Light Snow
2:53 PM -18.9 °F -44.4 °F -25.1 °F 74% 30.85 in 3.0 mi WSW 16.1 mph - N/A Snow Light Snow
3:53 PM -18.9 °F -45.2 °F -26.0 °F 70% 30.85 in 5.0 mi WSW 17.3 mph - N/A Snow Light Snow
4:53 PM -18.9 °F -42.8 °F -25.1 °F 74% 30.87 in 6.0 mi WSW 13.8 mph - N/A Snow Light Snow
5:53 PM -20.0 °F -44.1 °F -26.0 °F 74% 30.88 in 3.0 mi WSW 13.8 mph - N/A Snow Light Snow
6:53 PM -18.9 °F -43.6 °F -25.1 °F 74% 30.90 in 7.0 mi WSW 15.0 mph - N/A Snow Light Snow
7:53 PM -18.9 °F -43.6 °F -25.1 °F 74% 30.92 in 6.0 mi WSW 15.0 mph - N/A Snow Light Snow
8:53 PM -18.9 °F -40.8 °F -25.1 °F 74% 30.93 in 9.0 mi WSW 11.5 mph - N/A   Overcast
9:53 PM -18.9 °F -40.8 °F -26.0 °F 70% 30.94 in 9.0 mi WSW 11.5 mph - N/A Snow Light Snow
10:53 PM -20.0 °F -39.9 °F -26.0 °F 74% 30.96 in 10.0 mi WSW 9.2 mph - N/A   Overcast
11:53 PM -20.9 °F -39.7 °F -27.0 °F 73% 30.97 in 10.0 mi WSW 8.1 mph - N/A   Overcast